SCP
0 0 0 0 0 0 0 0 0 0 0 0 0 0 0 0 0 0 0 0 0 0 0 0 0 0 0 0 0 0 0 0 0 0 0 0 0 0 0 0 0 0 0
0 0 0 0 0 0 0 0 0 0 0 0 0 0 0 0 0 0 0 0 0 0 0 0 0 0 0 0 0 0 0 0 0 0 0 0 0 0 0 0 0 0 0
0 0 0 0 0 0 0 0 0 0 0 0 0 0 0 0 0 0 0 0 0 0 0 0 0 0 0 0 0 0 0 0 0 0 0 0 0 0 0 0 0 0 0
0 0 0 0 0 0 0 0 0 0 0 0 0 0 0 0 0 0 0 0 0 0 0 0 0 0 0 0 0 0 0 0 0 0 0 0 0 0 0 0 0 0 0
0 0 0 0 0 0 0 0 0 0 0 0 0 0 0 0 0 0 0 0 0 0 0 0 0 0 0 0 0 0 0 0 0 0 0 0 0 0 0 0 0 0 0
0 0 0 0 0 0 0 0 0 0 0 0 0 0 0 0 0 0 0 0 0 0 0 0 0 0 0 0 0 0 0 0 0 0 0 0 0 0 0 0 0 0 0
0 0 0 0 0 0 0 0 0 0 0 0 0 0 0 0 0 0 0 0 0 0 0 0 0 0 0 0 0 0 0 0 0 0 0 0 0 0 0 0 0 0 0
0 0 0 0 0 0 0 0 0 0 0 0 0 0 0 0 0 0 0 0 0 0 0 0 0 0 0 0 0 0 0 0 0 0 0 0 0 0 0 0 0 0 0
0 0 0 0 0 0 0 0 0 0 0 0 0 0 0 0 0 0 0 0 0 0 0 0 0 0 0 0 0 0 0 0 0 0 0 0 0 0 0 0 0 0 0
0 0 0 0 0 0 0 0 0 0 0 0 0 0 0 0 0 0 0 0 0 0 0 0 0 0 0 0 0 0 0 0 0 0 0 0 0 0 0 0 0 0 0
0 0 0 0 0 0 0 0 0 0 0 0 0 0 0 0 0 0 0 0 0 0 0 0 0 0 0 0 0 0 0 0 0 0 0 0 0 0 0 0 0 0 0
0 0 0 0 0 0 0 0 0 0 0 0 0 0 0 0 0 0 0 0 0 0 0 0 0 0 0 0 0 0 0 0 0 0 0 0 0 0 0 0 0 0 0
0 0 0 0 0 0 0 0 0 0 0 0 0 0 0 0 0 0 0 0 0 0 0 0 0 0 0 0 0 0 0 0 0 0 0 0 0 0 0 0 0 0 0
0 0 0 0 0 0 0 0 0 0 0 0 0 0 0 0 0 0 0 0 0 0 0 0 0 0 0 0 0 0 0 0 0 0 0 0 0 0 0 0 0 0 0
0 0 0 0 0 0 0 0 0 0 0 0 0 0 0 0 0 0 0 0 0 0 0 0 0 0 0 0 0 0 0 0 0 0 0 0 0 0 0 0 0 0 0
0 0 0 0 0 0 0 0 0 0 0 0 0 0 0 0 0 0 0 0 0 0 0 0 0 0 0 0 0 0 0 0 0 0 0 0 0 0 0 0 0 0 0
0 0 0 0 0 0 0 0 0 0 0 0 0 0 0 0 0 0 0 0 0 0 0 0 0 0 0 0 0 0 0 0 0 0 0 0 0 0 0 0 0 0 0
0 0 0 0 0 0 0 0 0 0 0 0 0 0 0 0 0 0 0 0 0 0 0 0 0 0 0 0 0 0 0 0 0 0 0 0 0 0 0 0 0 0 0
0 0 0 0 0 0 0 0 0 0 0 0 0 0 0 0 0 0 0 0 0 0 0 0 0 0 0 0 0 0 0 0 0 0 0 0 0 0 0 0 0 0 0
0 0 0 0 0 0 0 0 0 0 0 0 0 0 0 0 0 0 0 0 0 0 0 0 0 0 0 0 0 0 0 0 0 0 0 0 0 0 0 0 0 0 0
0 0 0 0 0 0 0 0 0 0 0 0 0 0 0 0 0 0 0 0 0 0 0 0 0 0 0 0 0 0 0 0 0 0 0 0 0 0 0 0 0 0 0
0 0 0 0 0 0 0 0 0 0 0 0 0 0 0 0 0 0 0 0 0 0 0 0 0 0 0 0 0 0 0 0 0 0 0 0 0 0 0 0 0 0 0
0 0 0 0 0 0 0 0 0 0 0 0 0 0 0 0 0 0 0 0 0 0 0 0 0 0 0 0 0 0 0 0 0 0 0 0 0 0 0 0 0 0 0
0 0 0 0 0 0 0 0 0 0 0 0 0 0 0 0 0 0 0 0 0 0 0 0 0 0 0 0 0 0 0 0 0 0 0 0 0 0 0 0 0 0 0
0 0 0 0 0 0 0 0 0 0 0 0 0 0 0 0 0 0 0 0 0 0 0 0 0 0 0 0 0 0 0 0 0 0 0 0 0 0 0 0 0 0 0
0 0 0 0 0 0 0 0 0 0 0 0 0 0 0 0 0 0 0 0 0 0 0 0 0 0 0 0 0 0 0 0 0 0 0 0 0 0 0 0 0 0 0
Wind_Speed
12 14 15 16 16 17 17 19 18 17 18 18 18 19 20 20 20 18 18 17 17 16 15 15 16 15 11 11 11 11 12 12 15 16 15 15 18 18 17 17 17 18 18
10 12 14 15 15 16 18 18 17 18 17 18 18 19 19 20 20 20 20 18 18 18 17 16 16 13 15 13 12 13 13 13 15 19 17 15 19 19 19 19 17 16 17
8 10 12 13 15 16 17 16 16 17 17 18 19 19 19 19 20 20 19 19 18 18 16 16 16 15 16 13 14 13 12 13 14 16 17 15 15 15 18 18 19 17 17
8 10 12 13 14 15 15 15 15 16 17 18 18 19 18 18 18 18 18 18 17 16 16 15 15 16 16 16 13 15 14 14 15 15 16 15 15 16 15 14 14 14 15
9 10 12 12 12 12 13 14 14 15 16 17 17 18 18 17 16 17 17 16 16 16 15 16 16 19 21 17 13 13 14 13 13 14 15 15 14 13 13 13 15 15 16
10 11 10 10 11 12 12 13 14 15 16 16 17 18 19 16 23 29 21 16 16 16 16 16 16 19 22 26 27 25 22 17 15 14 15 16 17 16 15 14 15 17 17
11 11 10 10 11 11 12 13 14 15 16 16 17 19 20 21 28 30 31 18 17 16 16 14 13 13 18 15 19 23 23 25 25 18 18 19 18 17 17 19 17 18 18
12 11 10 9 11 11 12 13 14 13 14 15 17 19 19 21 28 30 31 22 17 16 16 16 15 15 14 14 13 14 16 16 18 14 15 16 17 17 16 17 18 19 19
13 12 10 9 10 11 12 13 13 12 13 14 15 17 19 20 27 29 28 16 16 17 16 16 16 15 18 20 15 16 17 15 17 22 23 22 25 26 21 14 14 15 16
14 13 13 12 11 12 13 13 11 11 13 13 14 16 18 18 23 29 29 14 15 14 13 14 20 19 19 20 15 15 16 14 12 13 15 17 16 17 21 14 13 13 15
14 14 14 13 12 12 12 11 10 10 11 12 14 14 16 18 21 27 29 15 14 13 11 10 11 19 21 21 19 14 15 14 13 12 12 11 11 10 11 10 11 11 13
15 15 14 14 11 9 11 10 10 10 11 12 12 13 12 14 18 22 28 26 19 13 11 9 10 16 18 19 16 15 18 16 10 10 10 10 10 10 10 10 12 13 14
15 15 14 14 12 10 10 10 9 9 9 9 10 10 10 10 13 23 26 27 27 16 11 14 14 16 16 14 14 15 14 10 9 10 10 10 10 10 11 10 12 12 14
15 15 14 13 12 10 8 8 8 8 9 9 10 10 10 10 10 11 13 15 21 18 13 14 17 17 13 11 11 10 8 8 9 9 10 10 10 10 10 10 10 10 11
15 14 13 12 11 10 9 8 9 10 10 10 9 9 9 10 12 17 13 11 11 11 10 8 7 7 8 8 7 7 7 7 8 8 9 10 10 10 10 9 9 10 11
13 13 11 10 10 9 9 9 12 15 17 20 19 16 12 15 15 18 21 20 19 17 12 8 9 8 8 8 7 7 7 7 7 8 8 9 9 10 10 10 10 10 11
14 13 11 10 10 9 9 9 10 9 14 18 20 21 21 18 18 18 19 21 19 18 11 9 9 8 8 7 7 7 7 7 7 7 8 9 9 9 10 10 10 10 10
14 13 12 10 10 10 9 9 9 9 8 7 11 17 19 20 19 18 18 16 12 13 9 9 8 7 7 7 7 7 7 7 7 7 8 8 9 9 10 10 10 11 11
12 10 10 10 10 10 9 9 9 9 9 8 7 8 13 16 18 18 17 11 9 9 9 8 7 7 6 6 6 6 7 7 8 7 8 9 9 9 10 10 10 14 13
11 15 14 11 10 9 9 8 8 8 8 8 7 7 6 7 8 10 11 9 8 8 8 8 7 7 6 6 6 6 6 7 8 8 8 8 8 9 10 12 11 11 10
11 12 16 12 9 9 9 9 8 8 8 7 7 7 10 7 7 9 9 9 8 8 7 7 6 6 6 5 5 6 7 7 7 7 8 8 8 9 9 10 10 11 10
10 10 10 10 10 9 9 8 8 8 8 8 7 7 12 8 6 7 7 7 7 6 6 6 5 5 5 5 5 6 6 7 7 7 8 8 8 9 10 10 10 10 10
11 11 11 10 10 12 11 8 7 7 7 7 6 6 6 6 6 6 6 6 5 5 5 5 5 5 4 4 5 6 6 7 7 8 8 9 9 9 10 11 12 12 12
11 12 12 11 10 9 8 8 7 7 6 6 6 6 6 5 5 6 5 5 5 5 5 5 5 6 6 5 5 5 6 7 8 8 10 10 10 9 10 11 12 13 12
11 11 11 10 9 9 8 7 6 6 6 6 5 5 5 5 5 5 5 5 6 5 6 5 4 5 6 7 7 6 9 13 12 10 8 7 9 10 11 12 11 12 12
11 11 10 9 9 8 7 6 5 5 5 5 5 5 5 5 5 5 5 5 5 5 5 4 4 5 5 5 7 9 11 12 12 12 8 7 9 10 12 11 13 12 12
Wind_Direction
238 234 233 234 233 232 233 234 232 230 225 223 218 214 212 208 204 203 205 205 210 215 216 222 229 232 237 240 241 244 247 249 262 273 278 283 284 282 280 278 277 277 276
251 243 240 238 235 234 235 236 234 232 227 223 220 216 214 211 206 204 205 206 209 215 218 221 229 229 234 240 242 245 247 250 258 272 278 282 282 282 281 280 279 276 275
262 252 248 244 240 240 240 238 234 232 229 223 220 218 215 211 208 206 205 207 210 215 218 221 227 228 235 237 240 245 248 252 255 265 274 278 279 279 281 280 279 277 277
271 258 255 252 248 247 246 241 237 232 229 225 222 220 217 213 209 206 205 207 211 215 218 222 226 228 233 238 242 246 250 255 258 263 269 275 278 281 281 283 283 281 280
281 267 263 261 257 253 248 243 238 233 230 227 225 222 219 215 209 205 204 206 209 215 219 224 228 230 233 236 238 243 247 252 258 264 271 277 280 284 285 288 288 288 284
289 279 275 269 262 256 252 246 240 235 231 227 225 223 221 218 215 210 203 207 210 214 220 225 230 235 239 244 247 250 251 256 264 271 276 278 282 287 292 290 289 288 287
294 288 284 276 267 260 254 248 241 236 231 228 225 223 224 222 218 215 210 205 212 215 220 225 228 231 236 240 250 258 263 266 267 269 273 277 285 289 290 288 284 284 284
297 293 287 278 272 269 261 252 246 239 233 230 227 226 227 226 221 218 215 210 215 218 219 224 230 234 233 237 243 252 256 259 262 263 266 272 276 279 280 283 287 286 283
301 301 296 281 275 272 265 259 251 243 238 232 229 228 229 229 223 220 216 213 217 221 223 226 231 238 242 243 247 254 260 262 265 266 266 271 277 284 288 289 287 286 285
309 307 303 295 284 277 271 266 256 245 241 236 233 230 230 230 224 220 216 213 217 220 224 226 231 236 242 245 246 254 262 269 272 275 275 277 279 281 283 279 280 281 283
312 307 303 299 291 285 280 271 260 248 242 238 237 233 231 230 227 222 217 210 212 217 221 222 225 233 240 246 250 255 264 274 281 279 277 276 277 274 273 270 267 270 275
309 304 303 301 297 287 280 272 259 248 244 241 239 237 232 229 227 225 221 216 212 216 221 223 226 232 239 248 254 259 269 280 279 277 278 281 283 284 283 282 276 269 266
307 304 304 303 298 290 280 271 260 245 241 240 237 236 233 226 225 224 222 221 219 216 221 226 231 236 243 251 255 264 273 273 271 274 278 283 286 287 287 284 280 273 269
304 305 305 304 301 295 280 266 256 247 241 239 237 237 235 229 221 216 215 220 223 224 225 230 235 240 243 250 256 262 261 261 267 273 279 284 287 287 286 287 289 289 286
304 304 304 301 299 296 284 268 259 250 244 241 242 239 237 234 224 214 207 207 208 211 210 216 221 226 232 238 243 249 253 258 264 268 277 284 287 289 290 291 289 289 287
304 304 303 302 299 294 290 283 258 253 256 250 246 244 244 244 241 224 216 214 211 206 205 213 220 225 232 239 246 251 253 259 265 272 277 282 286 290 292 293 290 289 289
300 301 300 297 296 295 291 287 287 272 255 253 251 248 244 242 240 231 219 215 211 204 209 215 220 224 230 238 245 251 257 263 269 272 275 280 285 288 291 293 293 292 291
299 296 294 293 294 292 288 282 279 281 280 267 253 249 247 241 234 228 220 208 205 204 211 218 221 224 229 237 243 249 258 265 267 270 275 279 283 287 290 292 294 295 295
297 293 293 292 290 287 284 279 274 271 270 271 265 253 245 240 229 222 213 204 199 202 208 216 221 223 228 235 242 248 257 264 270 275 277 280 284 287 290 292 294 295 295
293 290 293 291 289 287 282 277 272 268 266 262 258 254 244 229 215 207 204 200 200 202 207 214 217 222 226 232 239 247 256 264 270 273 278 282 285 287 290 293 294 295 293
294 292 292 291 286 284 281 275 270 265 260 258 254 248 239 232 217 205 199 197 199 202 205 210 213 216 222 228 236 246 256 266 272 278 282 285 289 290 291 293 294 292 292
291 289 288 287 285 281 278 273 267 260 255 253 251 245 242 234 222 207 197 194 196 200 202 204 209 214 218 225 235 248 259 268 275 280 284 288 291 293 294 295 295 295 293
290 289 288 284 281 281 279 271 264 257 250 245 240 233 230 226 217 205 194 187 185 188 190 196 205 211 216 225 237 248 261 270 279 285 289 292 296 297 298 298 297 296 294
289 288 288 288 286 281 275 271 264 254 243 236 230 225 221 217 207 194 184 175 176 184 188 194 206 215 222 235 245 253 262 272 281 283 284 288 295 299 300 299 296 295 294
292 291 291 290 288 285 277 268 260 248 234 226 222 217 211 205 194 180 172 172 179 185 188 192 201 215 227 243 259 270 278 284 286 293 293 293 296 299 299 298 297 297 295
296 295 294 292 290 285 277 267 255 239 226 217 212 207 199 194 183 171 167 172 176 178 183 193 205 218 237 253 266 278 287 291 297 306 311 303 303 304 307 302 303 301 298